Time,TemperatureF,DewpointF,PressureIn,WindDirection,WindDirectionDegrees,WindSpeedMPH,WindSpeedGustMPH,Humidity,HourlyPrecipIn,Conditions,Clouds,dailyrainin,SoftwareType,DateUTC
2013-01-15 00:01:00,-5.0,-15.0,29.94,NNW,337,5.0,8.0,61,0.00,,,0.01,,2013-01-15 07:01:00,
2013-01-15 00:12:00,-5.0,-15.0,29.94,NNW,337,5.0,8.0,61,0.00,,,0.01,,2013-01-15 07:12:00,
2013-01-15 00:22:00,-5.0,-15.0,29.94,NNW,346,6.0,8.0,62,0.00,,,0.01,,2013-01-15 07:22:00,
2013-01-15 00:32:00,-5.0,-15.0,29.95,North,352,7.0,8.0,61,0.00,,,0.01,,2013-01-15 07:32:00,
2013-01-15 00:42:00,-5.0,-15.0,29.95,North,352,7.0,8.0,61,0.00,,,0.01,,2013-01-15 07:42:00,
2013-01-15 00:52:00,-5.0,-15.0,29.94,NNW,345,6.0,9.0,60,0.00,,,0.01,,2013-01-15 07:52:00,
2013-01-15 01:01:00,-5.0,-15.0,29.95,NNW,343,7.0,9.0,60,0.00,,,0.01,,2013-01-15 08:01:00,
2013-01-15 01:11:00,-5.0,-15.0,29.95,NNW,343,7.0,9.0,60,0.00,,,0.01,,2013-01-15 08:11:00,
2013-01-15 01:22:00,-5.0,-16.0,29.94,NNW,340,8.0,10.0,58,0.00,,,0.01,,2013-01-15 08:22:00,
2013-01-15 01:32:00,-5.0,-15.0,29.95,NNW,327,6.0,8.0,60,0.00,,,0.01,,2013-01-15 08:32:00,
2013-01-15 01:42:00,-5.0,-15.0,29.95,NNW,327,6.0,8.0,60,0.00,,,0.01,,2013-01-15 08:42:00,
2013-01-15 01:52:00,-6.0,-16.0,29.94,NW,326,7.0,8.0,60,0.00,,,0.01,,2013-01-15 08:52:00,
2013-01-15 02:02:00,-5.0,-15.0,29.94,North,349,6.0,10.0,60,0.00,,,0.01,,2013-01-15 09:02:00,
2013-01-15 02:11:00,-5.0,-15.0,29.94,North,349,6.0,10.0,60,0.00,,,0.01,,2013-01-15 09:11:00,
2013-01-15 02:22:00,-6.0,-16.0,29.95,NNW,347,6.0,9.0,60,0.00,,,0.01,,2013-01-15 09:22:00,
2013-01-15 02:32:00,-6.0,-16.0,29.95,North,4,3.0,8.0,60,0.00,,,0.01,,2013-01-15 09:32:00,
2013-01-15 02:42:00,-6.0,-16.0,29.95,North,4,3.0,8.0,60,0.00,,,0.01,,2013-01-15 09:42:00,
2013-01-15 02:52:00,-6.0,-16.0,29.96,NNW,331,5.0,7.0,61,0.00,,,0.01,,2013-01-15 09:52:00,
2013-01-15 03:01:00,-7.0,-17.0,29.95,NNW,329,5.0,7.0,62,0.00,,,0.01,,2013-01-15 10:01:00,
2013-01-15 03:11:00,-7.0,-17.0,29.95,NNW,329,5.0,7.0,62,0.00,,,0.01,,2013-01-15 10:11:00,
2013-01-15 03:22:00,-6.0,-17.0,29.95,NNW,336,6.0,7.0,59,0.00,,,0.01,,2013-01-15 10:22:00,
2013-01-15 03:32:00,-6.0,-17.0,29.95,NNE,17,3.0,5.0,59,0.00,,,0.01,,2013-01-15 10:32:00,
2013-01-15 03:42:00,-6.0,-17.0,29.95,NNE,17,3.0,5.0,59,0.00,,,0.01,,2013-01-15 10:42:00,
2013-01-15 03:52:00,-6.0,-16.0,29.95,North,355,2.0,3.0,60,0.00,,,0.01,,2013-01-15 10:52:00,
2013-01-15 04:01:00,-6.0,-17.0,29.78,North,355,3.0,5.0,58,0.00,,,0.01,,2013-01-15 11:01:00,
2013-01-15 04:11:00,-5.0,-16.0,29.96,NNE,30,2.0,3.0,57,0.00,,,0.01,,2013-01-15 11:11:00,
2013-01-15 04:22:00,-5.0,-16.0,29.96,NNE,30,2.0,3.0,57,0.00,,,0.01,,2013-01-15 11:22:00,
2013-01-15 04:32:00,-5.0,-17.0,29.96,North,8,3.0,5.0,56,0.00,,,0.01,,2013-01-15 11:32:00,
2013-01-15 04:42:00,-5.0,-17.0,29.96,North,8,3.0,5.0,56,0.00,,,0.01,,2013-01-15 11:42:00,
2013-01-15 04:52:00,-4.0,-16.0,29.96,NNE,19,2.0,5.0,55,0.00,,,0.01,,2013-01-15 11:52:00,
2013-01-15 05:02:00,-4.0,-16.0,29.96,NNE,12,6.0,8.0,54,0.00,,,0.01,,2013-01-15 12:02:00,
2013-01-15 05:11:00,-4.0,-16.0,29.96,NNE,12,6.0,8.0,54,0.00,,,0.01,,2013-01-15 12:11:00,
2013-01-15 05:22:00,-4.0,-17.0,29.95,NNE,30,2.0,3.0,52,0.00,,,0.01,,2013-01-15 12:22:00,
2013-01-15 05:32:00,-3.0,-17.0,29.95,North,0,3.0,5.0,51,0.00,,,0.01,,2013-01-15 12:32:00,
2013-01-15 05:42:00,-3.0,-17.0,29.95,North,0,3.0,5.0,51,0.00,,,0.01,,2013-01-15 12:42:00,
2013-01-15 05:53:00,-4.0,-18.0,29.93,NNE,18,2.0,3.0,51,0.00,,,0.01,,2013-01-15 12:53:00,
2013-01-15 06:02:00,-3.0,-17.0,29.95,NNE,26,3.0,3.0,51,0.00,,,0.01,,2013-01-15 13:02:00,
2013-01-15 06:12:00,-3.0,-17.0,29.95,NNE,26,3.0,3.0,51,0.00,,,0.01,,2013-01-15 13:12:00,
2013-01-15 06:22:00,-3.0,-17.0,29.95,NNE,22,2.0,3.0,50,0.00,,,0.01,,2013-01-15 13:22:00,
2013-01-15 06:32:00,-3.0,-17.0,29.95,NNE,22,2.0,3.0,50,0.00,,,0.01,,2013-01-15 13:32:00,
2013-01-15 06:42:00,-3.0,-17.0,29.95,NNE,22,2.0,3.0,50,0.00,,,0.01,,2013-01-15 13:42:00,
2013-01-15 06:53:00,-3.0,-16.0,29.96,NNE,22,2.0,3.0,52,0.00,,,0.01,,2013-01-15 13:53:00,
2013-01-15 07:01:00,-3.0,-15.0,29.96,NNE,22,1.0,2.0,55,0.00,,,0.01,,2013-01-15 14:01:00,
2013-01-15 07:11:00,-3.0,-15.0,29.96,NNE,22,1.0,2.0,55,0.00,,,0.01,,2013-01-15 14:11:00,
2013-01-15 07:22:00,-3.0,-15.0,29.97,NNE,22,2.0,3.0,56,0.00,,,0.01,,2013-01-15 14:22:00,
2013-01-15 07:32:00,-3.0,-15.0,29.97,NNE,22,2.0,3.0,55,0.00,,,0.01,,2013-01-15 14:32:00,
2013-01-15 07:42:00,-3.0,-15.0,29.97,NNE,22,2.0,3.0,55,0.00,,,0.01,,2013-01-15 14:42:00,
2013-01-15 07:53:00,1.0,-17.0,29.96,NW,313,6.0,7.0,42,0.00,,,0.01,,2013-01-15 14:53:00,
2013-01-15 08:02:00,0.0,-13.0,29.98,NW,323,3.0,5.0,52,0.00,,,0.01,,2013-01-15 15:02:00,
2013-01-15 08:12:00,0.0,-13.0,29.98,NW,323,3.0,5.0,52,0.00,,,0.01,,2013-01-15 15:12:00,
2013-01-15 08:22:00,0.0,-13.0,29.99,NNW,346,0.0,1.0,53,0.00,,,0.01,,2013-01-15 15:22:00,
2013-01-15 08:32:00,2.0,-12.0,29.99,NW,311,0.0,5.0,52,0.00,,,0.01,,2013-01-15 15:32:00,
2013-01-15 08:42:00,2.0,-12.0,29.99,NW,311,0.0,5.0,52,0.00,,,0.01,,2013-01-15 15:42:00,
2013-01-15 08:53:00,5.0,-10.0,30.00,NNW,333,1.0,2.0,50,0.00,,,0.01,,2013-01-15 15:53:00,
2013-01-15 09:02:00,7.0,-9.0,30.00,NW,326,3.0,6.0,47,0.00,,,0.01,,2013-01-15 16:02:00,
2013-01-15 09:22:00,11.0,-5.0,30.00,WNW,303,2.0,3.0,47,0.00,,,0.01,,2013-01-15 16:22:00,
2013-01-15 09:32:00,12.0,-3.0,30.01,East,96,1.0,1.0,49,0.00,,,0.01,,2013-01-15 16:32:00,
2013-01-15 09:53:00,16.0,-2.0,30.01,East,84,1.0,9.0,45,0.00,,,0.01,,2013-01-15 16:53:00,
2013-01-15 10:02:00,17.0,-2.0,30.01,SE,146,1.0,3.0,43,0.00,,,0.01,,2013-01-15 17:02:00,
2013-01-15 10:22:00,20.0,0.0,30.01,NE,43,1.0,3.0,41,0.00,,,0.01,,2013-01-15 17:22:00,
2013-01-15 10:32:00,21.0,1.0,30.01,ENE,64,6.0,20.0,41,0.00,,,0.01,,2013-01-15 17:32:00,
2013-01-15 10:53:00,22.0,1.0,30.02,East,84,3.0,9.0,39,0.00,,,0.01,,2013-01-15 17:53:00,
2013-01-15 11:02:00,24.0,1.0,30.02,East,90,5.0,6.0,36,0.00,,,0.01,,2013-01-15 18:02:00,
2013-01-15 11:33:00,25.0,1.0,30.02,ESE,113,5.0,7.0,35,0.00,,,0.01,,2013-01-15 18:33:00,
2013-01-15 11:53:00,26.0,2.0,30.03,ESE,118,2.0,3.0,34,0.00,,,0.01,,2013-01-15 18:53:00,
2013-01-15 12:02:00,27.0,2.0,30.02,SE,128,5.0,6.0,33,0.00,,,0.01,,2013-01-15 19:02:00,
2013-01-15 12:22:00,27.0,2.0,30.02,SE,127,8.0,12.0,33,0.00,,,0.01,,2013-01-15 19:22:00,
2013-01-15 12:32:00,26.0,1.0,30.01,SE,130,5.0,5.0,33,0.01,,,0.02,,2013-01-15 19:32:00,
2013-01-15 12:53:00,26.0,1.0,30.02,SE,144,6.0,9.0,33,0.01,,,0.02,,2013-01-15 19:53:00,
2013-01-15 13:02:00,26.0,1.0,30.02,SE,131,5.0,6.0,33,0.02,,,0.03,,2013-01-15 20:02:00,
2013-01-15 13:12:00,26.0,1.0,30.02,SE,131,5.0,6.0,33,0.02,,,0.03,,2013-01-15 20:12:00,
2013-01-15 13:22:00,27.0,2.0,30.02,SE,137,3.0,7.0,33,0.03,,,0.03,,2013-01-15 20:22:00,
2013-01-15 13:32:00,26.0,1.0,30.02,SSE,147,6.0,7.0,33,0.02,,,0.03,,2013-01-15 20:32:00,
2013-01-15 13:42:00,26.0,1.0,30.02,SSE,147,6.0,7.0,33,0.02,,,0.03,,2013-01-15 20:42:00,
2013-01-15 13:53:00,27.0,2.0,30.03,South,174,3.0,3.0,33,0.03,,,0.04,,2013-01-15 20:53:00,
2013-01-15 14:02:00,28.0,3.0,30.03,SE,135,3.0,5.0,34,0.02,,,0.04,,2013-01-15 21:02:00,
2013-01-15 14:12:00,28.0,3.0,30.03,SE,135,3.0,5.0,34,0.02,,,0.04,,2013-01-15 21:12:00,
2013-01-15 14:22:00,27.0,2.0,30.04,East,91,1.0,3.0,33,0.01,,,0.04,,2013-01-15 21:22:00,
2013-01-15 14:33:00,27.0,4.0,30.04,ESE,121,2.0,6.0,37,0.01,,,0.04,,2013-01-15 21:33:00,
2013-01-15 14:53:00,26.0,7.0,30.04,North,11,3.0,14.0,44,0.00,,,0.04,,2013-01-15 21:53:00,
2013-01-15 15:02:00,25.0,5.0,30.05,ENE,62,6.0,9.0,41,0.00,,,0.04,,2013-01-15 22:02:00,
2013-01-15 15:11:00,25.0,5.0,30.05,ENE,62,6.0,9.0,41,0.00,,,0.04,,2013-01-15 22:11:00,
2013-01-15 15:22:00,24.0,10.0,30.06,North,8,5.0,7.0,55,0.00,,,0.04,,2013-01-15 22:22:00,
2013-01-15 15:32:00,24.0,7.0,30.06,NNE,18,7.0,13.0,47,0.00,,,0.04,,2013-01-15 22:32:00,
2013-01-15 15:42:00,24.0,7.0,30.06,NNE,18,7.0,13.0,47,0.00,,,0.04,,2013-01-15 22:42:00,
2013-01-15 15:52:00,24.0,4.0,30.06,NNW,333,7.0,10.0,42,0.00,,,0.04,,2013-01-15 22:52:00,
2013-01-15 16:02:00,24.0,5.0,30.07,NW,315,2.0,7.0,43,0.00,,,0.04,,2013-01-15 23:02:00,
2013-01-15 16:12:00,24.0,5.0,30.07,NW,315,2.0,7.0,43,0.00,,,0.04,,2013-01-15 23:12:00,
2013-01-15 16:22:00,24.0,5.0,30.07,NE,37,5.0,6.0,43,0.00,,,0.04,,2013-01-15 23:22:00,
2013-01-15 16:32:00,23.0,4.0,30.08,NNE,33,6.0,12.0,44,0.00,,,0.04,,2013-01-15 23:32:00,
2013-01-15 16:42:00,23.0,4.0,30.08,NNE,33,6.0,12.0,44,0.00,,,0.04,,2013-01-15 23:42:00,
2013-01-15 16:53:00,22.0,5.0,30.09,ENE,60,3.0,3.0,48,0.00,,,0.04,,2013-01-15 23:53:00,
2013-01-15 17:02:00,21.0,5.0,30.09,SE,127,1.0,3.0,49,0.00,,,0.04,,2013-01-16 00:02:00,
2013-01-15 17:12:00,21.0,5.0,30.09,SE,127,1.0,3.0,49,0.00,,,0.04,,2013-01-16 00:12:00,
2013-01-15 17:22:00,16.0,0.0,30.09,East,87,0.0,0.0,48,0.00,,,0.04,,2013-01-16 00:22:00,
2013-01-15 17:32:00,14.0,-1.0,30.09,East,87,0.0,0.0,50,0.00,,,0.04,,2013-01-16 00:32:00,
2013-01-15 17:42:00,14.0,-1.0,30.09,East,87,0.0,0.0,50,0.00,,,0.04,,2013-01-16 00:42:00,
2013-01-15 17:52:00,12.0,-2.0,30.10,East,87,0.0,0.0,53,0.00,,,0.04,,2013-01-16 00:52:00,
2013-01-15 18:02:00,11.0,-2.0,30.11,East,93,0.0,0.0,55,0.00,,,0.04,,2013-01-16 01:02:00,
2013-01-15 18:22:00,9.0,-3.0,30.11,ESE,114,0.0,0.0,57,0.00,,,0.04,,2013-01-16 01:22:00,
2013-01-15 18:32:00,9.0,-3.0,30.11,ESE,114,0.0,0.0,58,0.00,,,0.04,,2013-01-16 01:32:00,
2013-01-15 18:42:00,9.0,-3.0,30.11,ESE,114,0.0,0.0,58,0.00,,,0.04,,2013-01-16 01:42:00,
2013-01-15 18:53:00,8.0,-3.0,30.11,ESE,114,0.0,0.0,60,0.00,,,0.04,,2013-01-16 01:53:00,
2013-01-15 19:02:00,7.0,-4.0,30.11,ESE,115,0.0,0.0,61,0.00,,,0.04,,2013-01-16 02:02:00,
2013-01-15 19:22:00,7.0,-3.0,30.12,ESE,115,0.0,0.0,62,0.00,,,0.04,,2013-01-16 02:22:00,
2013-01-15 19:32:00,7.0,-4.0,30.12,ESE,114,0.0,0.0,61,0.00,,,0.04,,2013-01-16 02:32:00,
2013-01-15 19:42:00,7.0,-4.0,30.12,ESE,114,0.0,0.0,61,0.00,,,0.04,,2013-01-16 02:42:00,
2013-01-15 19:53:00,6.0,-4.0,30.13,ESE,115,0.0,0.0,62,0.00,,,0.04,,2013-01-16 02:53:00,
2013-01-15 20:02:00,6.0,-3.0,30.13,ESE,115,0.0,0.0,65,0.00,,,0.04,,2013-01-16 03:02:00,
2013-01-15 20:11:00,5.0,-4.0,30.13,ESE,114,0.0,0.0,65,0.00,,,0.04,,2013-01-16 03:11:00,
2013-01-15 20:22:00,5.0,-4.0,30.13,ESE,114,0.0,0.0,65,0.00,,,0.04,,2013-01-16 03:22:00,
2013-01-15 20:32:00,5.0,-4.0,30.13,ESE,115,0.0,0.0,64,0.00,,,0.04,,2013-01-16 03:32:00,
2013-01-15 20:42:00,5.0,-4.0,30.13,ESE,115,0.0,0.0,64,0.00,,,0.04,,2013-01-16 03:42:00,
2013-01-15 20:52:00,4.0,-5.0,30.13,ESE,102,0.0,0.0,66,0.00,,,0.04,,2013-01-16 03:52:00,
2013-01-15 21:02:00,5.0,-4.0,30.13,East,99,0.0,0.0,65,0.00,,,0.04,,2013-01-16 04:02:00,
2013-01-15 21:22:00,5.0,-4.0,30.13,East,96,0.0,0.0,67,0.00,,,0.04,,2013-01-16 04:22:00,
2013-01-15 21:32:00,5.0,-4.0,30.13,North,6,0.0,0.0,65,0.00,,,0.04,,2013-01-16 04:32:00,
2013-01-15 21:42:00,5.0,-4.0,30.13,North,6,0.0,0.0,65,0.00,,,0.04,,2013-01-16 04:42:00,
2013-01-15 21:52:00,6.0,-3.0,30.14,WNW,303,2.0,2.0,66,0.00,,,0.04,,2013-01-16 04:52:00,
2013-01-15 22:03:00,6.0,-3.0,30.14,North,0,0.0,0.0,65,0.00,,,0.04,,2013-01-16 05:03:00,
2013-01-15 22:12:00,6.0,-3.0,30.14,North,0,0.0,0.0,65,0.00,,,0.04,,2013-01-16 05:12:00,
2013-01-15 22:22:00,6.0,-3.0,30.14,North,8,0.0,0.0,65,0.00,,,0.04,,2013-01-16 05:22:00,
2013-01-15 22:32:00,6.0,-3.0,30.14,North,8,0.0,0.0,66,0.00,,,0.04,,2013-01-16 05:32:00,
2013-01-15 22:42:00,6.0,-3.0,30.14,North,8,0.0,0.0,66,0.00,,,0.04,,2013-01-16 05:42:00,
2013-01-15 22:53:00,8.0,0.0,30.14,North,8,0.0,0.0,68,0.00,,,0.04,,2013-01-16 05:53:00,
2013-01-15 23:02:00,10.0,3.0,30.14,North,8,0.0,0.0,72,0.00,,,0.04,,2013-01-16 06:02:00,
2013-01-15 23:11:00,10.0,3.0,30.14,North,8,0.0,0.0,72,0.00,,,0.04,,2013-01-16 06:11:00,
2013-01-15 23:22:00,12.0,5.0,30.15,NNE,20,0.0,0.0,73,0.00,,,0.04,,2013-01-16 06:22:00,
2013-01-15 23:32:00,10.0,0.0,30.15,ESE,123,0.0,0.0,63,0.00,,,0.04,,2013-01-16 06:32:00,
2013-01-15 23:42:00,10.0,0.0,30.15,ESE,123,0.0,0.0,63,0.00,,,0.04,,2013-01-16 06:42:00,
2013-01-15 23:52:00,9.0,0.0,30.16,North,0,0.0,0.0,65,0.00,,,0.04,,2013-01-16 06:52:00,